| time (UTC) | temp C | wind direction | speed KPH | gust KPH | rain 1hr cm | rain 24hr cm | rain mn cm | humidity % | barometer mb |
| 20260510130051 | 15 | 329 | 0.0 | 3.2 | 0.00 | 0.08 | 0.08 | 81 | 1015.4 |
| 20260510124555 | 15 | 103 | 0.0 | 4.8 | 0.00 | 0.08 | 0.08 | 83 | 1015.6 |
| 20260510123053 | 15 | 0 | 0.0 | 3.2 | 0.00 | 0.08 | 0.08 | 84 | 1015.8 |
| 20260510121552 | 15 | 0 | 0.0 | 3.2 | 0.00 | 0.08 | 0.08 | 87 | 1015.8 |
| 20260510120051 | 15 | 289 | 1.6 | 6.4 | 0.00 | 0.08 | 0.08 | 86 | 1016.3 |
| 20260510114613 | 15 | 125 | 0.0 | 3.2 | 0.00 | 0.08 | 0.08 | 86 | 1016.3 |
| 20260510113100 | 15 | 0 | 0.0 | 4.8 | 0.00 | 0.08 | 0.08 | 85 | 1016.3 |
| 20260510111555 | 15 | 0 | 0.0 | 4.8 | 0.00 | 0.08 | 0.08 | 85 | 1016.2 |
| 20260510104550 | 15 | 0 | 0.0 | 4.8 | 0.00 | 0.08 | 0.08 | 84 | 1016.2 |
| 20260510103054 | 15 | 90 | 0.0 | 3.2 | 0.00 | 0.08 | 0.08 | 83 | 1016.2 |
| 20260510101603 | 15 | 100 | 0.0 | 4.8 | 0.03 | 0.08 | 0.08 | 85 | 1016.3 |
| 20260510100054 | 14 | 0 | 0.0 | 4.8 | 0.05 | 0.08 | 0.08 | 85 | 1016.3 |
| 20260510094555 | 13 | 0 | 1.6 | 6.4 | 0.05 | 0.05 | 0.05 | 84 | 1016.4 |
| 20260510093055 | 13 | 350 | 1.6 | 4.8 | 0.05 | 0.05 | 0.05 | 82 | 1016.5 |
| 20260510091551 | 14 | 22 | 0.0 | 4.8 | 0.03 | 0.03 | 0.03 | 79 | 1016.8 |
| 20260510090052 | 15 | 0 | 0.0 | 6.4 | 0.00 | 0.00 | 0.00 | 76 | 1016.8 |
| 20260510084610 | 15 | 0 | 1.6 | 6.4 | 0.00 | 0.00 | 0.00 | 73 | 1016.6 |
| 20260510083056 | 15 | 0 | 1.6 | 6.4 | 0.00 | 0.00 | 0.00 | 73 | 1016.6 |
| 20260510081604 | 15 | 0 | 0.0 | 4.8 | 0.00 | 0.00 | 0.00 | 73 | 1016.4 |
| 20260510080100 | 15 | 303 | 0.0 | 6.4 | 0.00 | 0.00 | 0.00 | 75 | 1016.6 |
| 20260510074604 | 15 | 128 | 0.0 | 6.4 | 0.00 | 0.00 | 0.00 | 75 | 1016.6 |
| 20260510073058 | 14 | 0 | 0.0 | 4.8 | 0.00 | 0.00 | 0.00 | 76 | 1016.6 |
| 20260510071556 | 14 | 63 | 0.0 | 3.2 | 0.00 | 0.00 | 0.00 | 80 | 1016.8 |
| 20260510070105 | 13 | 0 | 0.0 | 3.2 | 0.00 | 0.00 | 0.00 | 82 | 1016.6 |
| 20260510064556 | 13 | 0 | 0.0 | 4.8 | 0.00 | 0.00 | 0.00 | 82 | 1016.6 |
| 20260510063053 | 13 | 0 | 0.0 | 1.6 | 0.00 | 0.00 | 0.00 | 83 | 1016.6 |
| 20260510061556 | 13 | 309 | 0.0 | 4.8 | 0.00 | 0.00 | 0.00 | 82 | 1016.6 |
| 20260510060059 | 13 | 0 | 0.0 | 4.8 | 0.00 | 0.00 | 0.00 | 81 | 1016.5 |
| 20260510054555 | 13 | 0 | 0.0 | 3.2 | 0.00 | 0.00 | 0.00 | 80 | 1016.4 |
| 20260510053055 | 13 | 0 | 0.0 | 4.8 | 0.00 | 0.00 | 0.00 | 78 | 1016.3 |
| 20260510051606 | 13 | 0 | 0.0 | 3.2 | 0.00 | 0.00 | 0.00 | 76 | 1016.2 |
| 20260510050106 | 13 | 0 | 0.0 | 9.7 | 0.00 | 0.00 | 0.00 | 74 | 1016.0 |
| 20260510044558 | 13 | 355 | 3.2 | 8.0 | 0.00 | 0.00 | 0.00 | 76 | 1016.2 |
| 20260510043052 | 13 | 329 | 0.0 | 3.2 | 0.00 | 0.00 | 0.00 | 78 | 1016.3 |
| 20260510041600 | 13 | 0 | 0.0 | 6.4 | 0.00 | 0.00 | 0.00 | 80 | 1016.4 |
| 20260510040104 | 14 | 0 | 0.0 | 3.2 | 0.00 | 0.00 | 0.00 | 80 | 1016.5 |
| 20260510034550 | 14 | 0 | 0.0 | 0.0 | 0.00 | 0.00 | 0.00 | 80 | 1016.3 |
| 20260510033100 | 14 | 0 | 0.0 | 1.6 | 0.00 | 0.00 | 0.00 | 81 | 1016.5 |
| 20260510031552 | 14 | 0 | 0.0 | 1.6 | 0.00 | 0.00 | 0.00 | 81 | 1016.5 |
| 20260510024554 | 13 | 0 | 1.6 | 8.0 | 0.00 | 0.00 | 0.00 | 80 | 1017.1 |
| 20260510023056 | 13 | 0 | 0.0 | 6.4 | 0.00 | 0.00 | 0.00 | 79 | 1017.3 |
| 20260510021646 | 13 | 335 | 1.6 | 8.0 | 0.00 | 0.00 | 0.00 | 79 | 1017.4 |
| 20260510020058 | 13 | 249 | 0.0 | 3.2 | 0.00 | 0.00 | 0.00 | 78 | 1017.7 |
| 20260510014600 | 13 | 83 | 0.0 | 0.0 | 0.00 | 0.00 | 0.00 | 77 | 1017.6 |
| 20260510013100 | 13 | 0 | 0.0 | 3.2 | 0.00 | 0.00 | 0.00 | 76 | 1017.7 |
| 20260510011552 | 14 | 0 | 0.0 | 3.2 | 0.00 | 0.00 | 0.00 | 75 | 1017.7 |
| 20260510010059 | 14 | 0 | 0.0 | 3.2 | 0.00 | 0.00 | 0.00 | 74 | 1017.8 |
| 20260510004555 | 14 | 330 | 4.8 | 8.0 | 0.00 | 0.00 | 0.00 | 74 | 1017.6 |
| 20260510003100 | 14 | 315 | 4.8 | 8.0 | 0.00 | 0.00 | 0.00 | 73 | 1018.2 |
| 20260510001550 | 14 | 37 | 3.2 | 6.4 | 0.00 | 0.00 | 0.00 | 74 | 1018.4 |
| 20260510000051 | 14 | 27 | 1.6 | 4.8 | 0.00 | 0.00 | 0.00 | 74 | 1018.6 |
| 20260509234553 | 14 | 0 | 0.0 | 3.2 | 0.00 | 0.00 | 0.00 | 74 | 1018.5 |
| 20260509233052 | 14 | 19 | 1.6 | 4.8 | 0.00 | 0.00 | 0.00 | 74 | 1018.5 |
| 20260509231558 | 14 | 0 | 0.0 | 0.0 | 0.00 | 0.00 | 0.00 | 74 | 1018.5 |
| 20260509230053 | 14 | 0 | 0.0 | 1.6 | 0.00 | 0.00 | 0.00 | 74 | 1018.3 |
| 20260509224552 | 14 | 0 | 0.0 | 4.8 | 0.00 | 0.00 | 0.00 | 74 | 1018.4 |
| 20260509223054 | 14 | 26 | 0.0 | 3.2 | 0.00 | 0.00 | 0.00 | 75 | 1018.4 |
| 20260509221556 | 14 | 26 | 3.2 | 6.4 | 0.00 | 0.00 | 0.00 | 75 | 1018.5 |
| 20260509220053 | 14 | 348 | 1.6 | 6.4 | 0.00 | 0.00 | 0.00 | 75 | 1018.6 |
| 20260509214558 | 15 | 20 | 1.6 | 6.4 | 0.00 | 0.00 | 0.00 | 74 | 1018.6 |
| 20260509213105 | 15 | 26 | 1.6 | 3.2 | 0.00 | 0.00 | 0.00 | 74 | 1018.6 |
| 20260509211602 | 15 | 0 | 0.0 | 1.6 | 0.00 | 0.00 | 0.00 | 74 | 1018.6 |
| 20260509210054 | 15 | 0 | 0.0 | 6.4 | 0.00 | 0.00 | 0.00 | 73 | 1018.6 |
| 20260509204553 | 15 | 28 | 1.6 | 6.4 | 0.00 | 0.00 | 0.00 | 73 | 1018.8 |
| 20260509203101 | 15 | 0 | 1.6 | 4.8 | 0.00 | 0.00 | 0.00 | 72 | 1018.9 |
| 20260509201600 | 15 | 335 | 3.2 | 6.4 | 0.00 | 0.00 | 0.00 | 72 | 1018.9 |
| 20260509200055 | 15 | 0 | 0.0 | 4.8 | 0.00 | 0.00 | 0.00 | 71 | 1018.8 |
| 20260509194602 | 15 | 340 | 3.2 | 4.8 | 0.00 | 0.00 | 0.00 | 71 | 1018.7 |
| 20260509193056 | 15 | 336 | 4.8 | 8.0 | 0.00 | 0.00 | 0.00 | 71 | 1018.6 |
| 20260509191609 | 15 | 0 | 1.6 | 8.0 | 0.00 | 0.00 | 0.00 | 71 | 1018.4 |
| 20260509190054 | 16 | 298 | 4.8 | 9.7 | 0.00 | 0.00 | 0.00 | 69 | 1018.1 |
| 20260509184601 | 16 | 360 | 3.2 | 6.4 | 0.00 | 0.00 | 0.00 | 67 | 1018.0 |
| 20260509183055 | 17 | 0 | 0.0 | 4.8 | 0.00 | 0.00 | 0.00 | 64 | 1017.9 |
| 20260509181601 | 18 | 0 | 0.0 | 0.0 | 0.00 | 0.00 | 0.00 | 61 | 1017.9 |
| 20260509180105 | 18 | 355 | 1.6 | 6.4 | 0.00 | 0.00 | 0.00 | 60 | 1017.9 |
| 20260509174557 | 19 | 0 | 1.6 | 4.8 | 0.00 | 0.00 | 0.00 | 58 | 1017.8 |
| 20260509173105 | 19 | 0 | 0.0 | 3.2 | 0.00 | 0.00 | 0.00 | 58 | 1017.8 |
| 20260509171551 | 20 | 36 | 0.0 | 8.0 | 0.00 | 0.00 | 0.00 | 57 | 1017.6 |
| 20260509170057 | 20 | 355 | 1.6 | 4.8 | 0.00 | 0.00 | 0.00 | 57 | 1017.6 |
| 20260509164554 | 20 | 350 | 0.0 | 4.8 | 0.00 | 0.00 | 0.00 | 54 | 1017.7 |
| 20260509163056 | 21 | 123 | 1.6 | 6.4 | 0.00 | 0.00 | 0.00 | 52 | 1017.7 |
| 20260509161603 | 22 | 115 | 1.6 | 6.4 | 0.00 | 0.00 | 0.00 | 47 | 1017.9 |
| 20260509160101 | 22 | 133 | 1.6 | 8.0 | 0.00 | 0.00 | 0.00 | 48 | 1017.9 |
| 20260509154552 | 22 | 74 | 1.6 | 12.9 | 0.00 | 0.00 | 0.00 | 46 | 1018.0 |
| 20260509153058 | 22 | 192 | 1.6 | 8.0 | 0.00 | 0.00 | 0.00 | 45 | 1018.0 |
| 20260509151555 | 22 | 130 | 1.6 | 6.4 | 0.00 | 0.00 | 0.00 | 44 | 1018.2 |
| 20260509150052 | 22 | 335 | 0.0 | 11.3 | 0.00 | 0.00 | 0.00 | 45 | 1018.1 |
| 20260509144554 | 22 | 299 | 1.6 | 11.3 | 0.00 | 0.00 | 0.00 | 47 | 1018.3 |
| 20260509143058 | 21 | 74 | 0.0 | 3.2 | 0.00 | 0.00 | 0.00 | 47 | 1018.6 |
| 20260509141550 | 21 | 115 | 0.0 | 9.7 | 0.00 | 0.00 | 0.00 | 47 | 1018.8 |
| 20260509140105 | 21 | 119 | 0.0 | 6.4 | 0.00 | 0.00 | 0.00 | 45 | 1018.9 |
| 20260509134556 | 22 | 105 | 1.6 | 11.3 | 0.00 | 0.00 | 0.00 | 46 | 1019.0 |
| 20260509133054 | 21 | 283 | 1.6 | 11.3 | 0.00 | 0.00 | 0.00 | 47 | 1019.1 |
| 20260509131556 | 21 | 0 | 0.0 | 6.4 | 0.00 | 0.00 | 0.00 | 44 | 1019.1 |